This demonstration page uses our WeatherBlox Daily Observations layout. Learn more.

Left ArrowRight Arrow

Hourly Observations for November 27, 2022

Temp ( °F °C ) Dew Point ( °F °C ) Humidity (%) Winds ( mph kmh ) Pressure ( in mb ) Visibility ( mi km ) Precip ( " mm )
12:00 am 00:00 Cloudy with Light Rain 48 8.9 47 8.3 96 96 NNE 6 9 29.46 997 6 10 0.01 0.25
12:14 am 00:14 Cloudy with Mist and Fog 48 8.9 47 8.3 96 96 N 3 6 29.46 997 6 10 0.01 0.25
12:23 am 00:23 Cloudy with Light Rain 48 8.9 48 8.9 100 100 N 3 6 29.46 997 10 16 0.01 0.25
12:35 am 00:35 Cloudy with Light Rain 48 8.9 48 8.9 100 100 N 5 7 29.46 997 3 4 0.01 0.25
12:38 am 00:38 Cloudy with Light Rain 48 8.9 48 8.9 100 100 NNW 3 6 29.46 997 2 3 0.01 0.25
12:52 am 00:52 Cloudy with Mist and Fog 48 8.9 48 8.9 100 100 Calm 29.44 997 2 2 0.01 0.25
1:30 am 01:30 Mostly Clear with Mist and Fog 48 8.9 47 8.3 96 96 SSW 6 9 29.47 998 1 2 0.00 0.00
1:42 am 01:42 Cloudy with Light Rain 48 8.9 47 8.3 96 96 SSW 5 7 29.46 997 2 3 0.01 0.13
1:50 am 01:50 Cloudy with Light Rain 48 9 46 8 93 93 SSW 5 7 29.46 997 3 4 0.01 0.13
1:52 am 01:52 Cloudy with Light Rain 48 8.9 47 8.3 96 96 SSW 5 7 29.44 997 3 5 0.01 0.13
2:31 am 02:31 Cloudy with Light Rain 48 8.9 47 8.3 96 96 SW 6 9 29.47 998 3 4 0.02 0.51
2:38 am 02:38 Cloudy with Light Rain 48 8.9 47 8.3 96 96 WSW 7 11 29.47 998 4 6 0.03 0.76
2:52 am 02:52 Cloudy 47 8.3 47 8.3 100 100 SW 9 15 29.44 997 10 16 0.03 0.76
3:10 am 03:10 Cloudy with Light Rain 47 8.3 46 7.8 97 97 WSW 12 19 29.47 998 8 13 0.01 0.13
3:52 am 03:52 Cloudy with Rain 48 8.9 47 8.3 96 96 W 10 17 29.46 998 5 8 0.09 2.29
4:52 am 04:52 Cloudy with Light Rain 47 8.3 46 7.8 97 97 NW 10 17 29.50 999 9 14 0.05 1.27
5:52 am 05:52 Cloudy with Light Rain 44 6.7 43 6.1 96 96 NW 15 24 29.54 1000 5 8 0.01 0.13
6:41 am 06:41 Cloudy 44 6.7 41 5 89 89 NNW 21 33 29.61 1003 10 16 0.01 0.13
6:52 am 06:52 Cloudy 44 6.7 42 5.6 93 93 NW 15 24 29.60 1002 10 16 0.01 0.13
7:44 am 07:44 Cloudy 43 6.1 40 4.4 89 89 NW 16 26 29.67 1005 10 16 0.00 0.00
7:52 am 07:52 Cloudy 43 6.1 40 4.4 89 89 NW 18 30 29.66 1005 10 16 0.00 0.00
8:14 am 08:14 Cloudy 43 6.1 41 5 93 93 WNW 12 19 29.70 1006 10 16 0.00 0.00
8:26 am 08:26 Mostly Cloudy 43 6.1 41 5 93 93 NW 12 19 29.69 1005 10 16 0.00 0.00
8:52 am 08:52 Mostly Cloudy 44 6.7 41 5 89 89 NW 12 19 29.67 1005 8 13 0.00 0.00
9:45 am 09:45 Cloudy 45 7.2 41 5 86 86 NW 13 20 29.74 1007 8 13 0.00 0.00
9:52 am 09:52 Cloudy 45 7.2 40 4.4 82 82 NW 15 24 29.72 1006 9 14 0.00 0.00
10:52 am 10:52 Cloudy 46 7.8 40 4.4 79 79 WNW 13 20 29.75 1008 10 16 0.00 0.00
11:52 am 11:52 Cloudy 45 7.2 39 3.9 80 80 WNW 13 20 29.78 1008 10 16 0.00 0.00
12:52 pm 12:52 Cloudy 45 7.2 39 3.9 80 80 W 13 20 29.79 1009 10 16 0.00 0.00
1:11 pm 13:11 Cloudy 45 7.2 39 3.9 80 80 WNW 7 11 29.80 1009 10 16 0.00 0.00
1:36 pm 13:36 Cloudy 45 7.2 39 3.9 80 80 WNW 10 17 29.82 1010 10 16 0.00 0.00
1:52 pm 13:52 Cloudy 45 7.2 39 3.9 80 80 W 14 22 29.80 1009 10 16 0.00 0.00
1:59 pm 13:59 Cloudy 44 6.7 39 3.9 82 82 W 13 20 29.83 1010 10 16 0.00 0.00
2:34 pm 14:34 Cloudy 45 7.2 39 3.9 80 80 WNW 12 19 29.84 1010 10 16 0.00 0.00
2:42 pm 14:42 Cloudy 45 7.2 39 3.9 80 80 W 14 22 29.84 1010 10 16 0.00 0.00
2:52 pm 14:52 Cloudy 44 6.7 38 3.3 79 79 W 16 26 29.82 1010 10 16 0.00 0.00
3:52 pm 15:52 Cloudy 44 6.7 37 2.8 76 76 W 13 20 29.84 1011 10 16 0.00 0.00
4:52 pm 16:52 Cloudy 43 6.1 37 2.8 79 79 WNW 6 9 29.85 1011 10 16 0.00 0.00
5:52 pm 17:52 Cloudy 42 5.6 37 2.8 82 82 WNW 6 9 29.88 1012 10 16 0.00 0.00
6:28 pm 18:28 Cloudy 41 5 36 2.2 82 82 NW 7 11 29.91 1013 10 16 0.00 0.00
6:52 pm 18:52 Cloudy 41 5 36 2.2 82 82 WNW 7 11 29.89 1012 10 16 0.00 0.00
7:07 pm 19:07 Cloudy 41 5 36 2.2 82 82 NW 5 7 29.92 1013 10 16 0.00 0.00
7:52 pm 19:52 Cloudy 41 5 36 2.2 82 82 WSW 3 6 29.91 1013 10 16 0.00 0.00
8:52 pm 20:52 Cloudy 41 5 35 1.7 79 79 W 7 11 29.91 1013 10 16 0.00 0.00
9:52 pm 21:52 Cloudy 41 5 35 1.7 79 79 NW 5 7 29.93 1014 10 16 0.00 0.00
10:52 pm 22:52 Cloudy 41 5 35 1.7 79 79 NW 5 7 29.93 1014 10 16 0.00 0.00
11:52 pm 23:52 Cloudy 41 5 34 1.1 76 76 W 3 6 29.93 1014 10 16 0.00 0.00

Powered by AerisWeather